Location: Newark
(52.3500°N, 175.9667°E)
Time: 21:33:13
(UTC+00:00)

Transit 4A - Pass Details

Date: 19 April 2021
Orbit: 871 x 974 km, 66.8° (Epoch: 16 May)

Event Time Altitude Azimuth Distance (km) Brightness Sun altitude
Rises 21:46:09 0° 314° (NW) 3,515 10.4 39.4°
Reaches altitude 10° 21:49:17 10° 298° (WNW) 2,555 9.8 39.7°
Maximum altitude 21:53:25 20° 253° (WSW) 1,915 9.5 40.2°
Drops below altitude 10° 21:57:30 10° 208° (SSW) 2,517 10.4 40.7°
Sets 22:00:35 0° 192° (SSW) 3,446 11.2 41.0°
